Starlink 11273

operational
NORAD ID: 60913 Int'l Des: 2024-154 Owner: SPXS Country: US Constellation: starlink
LEOCIRCULAR

Starlink 11273について

説明を読み込み中...

リアルタイム位置

3D地球を読み込み中...

次回通過

高度履歴

Altitude vs Time

uPlot chart will show altitude changes over time

軌道要素

1 60913U 24154L 25305.44733819 .00001273 00000-0 15375-4 0 9997
2 60913 53.1592 43.3657 0001391 72.3843 287.7327 15.69703398 68365
Epoch: Nov 1, 2025 • Age: 21 hours

現在のステータス

高度 361.2 km
速度 7.69 km/s
衛星直下点 -4.60°S, 127.89°W
打ち上げ日 Aug 31, 2024
運用期間 1.1 years
タイプ internet

技術仕様

分類 Payload
質量 960.00 kg
乾燥質量 910.00 kg
総質量 960.00 kg
長さ 0.30 m
直径 4.10 m
スパン 29.00 m
形状 Box + pan
製造者 SPXS
バスタイプ Starlink V2MD
フェーズステータス In Orbit
所有者/国 SPXS/US

大規模コンステレーション

Loading constellations...